Terminal Aerodrome Forecast
Issued by NWS

Home | Current Version | Previous Version | Text Only | Print | Product List | Glossary On
Versions: 1 2 3 4 5 6 7 8 9 10 11 12 13 14 15 16 17 18 19 20 21 22 23 24 25 26 27 28 29 30 31 32 33 34 35 36 37 38 39 40 41 42
077
FTAK31 PANC 111738
TAFACV
TAF
PACV 111738Z 1118/1218 10005KT P6SM -RA SCT015 OVC035
      TEMPO 1118/1122 11010G24KT 6SM -RA BKN020
     FM120000 09010KT P6SM -SHRA SCT020 OVC040
     FM121500 08008KT P6SM RA SCT015 OVC030=

USA.gov is the U.S. government's official web portal to all federal, state and local government web resources and services.